Location: Chèvreville
(49.1099°N, 2.8495°E)
Time: 17:00:45
(UTC+00:00)

NOAA 6 - Visible Passes

Search period start: 30 September 2023 00:00
Search period end: 10 October 2023 00:00
Orbit: 771 x 784 km, 98.6° (Epoch: 29 September)

Date Brightness Start Highest point End Pass type
(mag) Time Alt. Az. Time Alt. Az. Time Alt. Az.
30 Sep 6.1 18:46:22 10° SSW 18:50:51 30° W 18:55:23 10° NNW visible
01 Oct 7.9 05:16:39 10° E 05:17:02 10° E 05:17:25 10° E visible
01 Oct 4.9 18:12:30 10° S 18:17:33 56° W 18:22:39 10° NNW visible
02 Oct 7.0 19:21:06 10° SW 19:24:15 16° W 19:27:27 10° NW visible
03 Oct 6.1 18:46:18 10° SSW 18:50:47 30° W 18:55:19 10° NNW visible
04 Oct 7.8 05:16:50 10° E 05:16:58 10° E 05:17:06 10° E visible
04 Oct 4.8 18:12:26 10° S 18:17:29 56° W 18:22:35 10° NNW visible
05 Oct 7.0 19:21:00 10° SW 19:24:11 16° W 19:27:24 10° NW visible
06 Oct 6.1 18:46:12 10° SSW 18:50:42 30° W 18:55:16 10° NNW visible
07 Oct 4.8 18:12:21 10° S 18:17:24 57° W 18:22:30 10° NNW visible
08 Oct 4.0 17:39:06 10° SSE 17:44:15 78° ENE 17:49:27 10° NNW visible
08 Oct 7.0 19:20:54 10° SW 19:24:05 16° W 19:27:20 10° NW visible
09 Oct 6.0 18:46:06 10° SSW 18:50:37 30° W 18:55:11 10° NNW visible
